Zurück zum Katalog

STARLINK-30989

AktivKommunikationVLEO
NORAD 58510·PAYLOAD·🇺🇸 United States

Gestartet Dec 7, 2023 von Cape Canaveral Space Force Station

Loading…

Nächste Überflüge (nächste 24 Stunden)

TLE

AktuellSource: CelesTrak SupGP

Epoche: Sep 14, 2026, 21:16 UTC

1 58510C 23191C   26257.88659722 -.00032471  00000+0 -11764-2 0  2570
2 58510  42.9994 115.2184 0001310 270.8453  81.8920 15.27587534    10

Verfolge STARLINK-30989 in Echtzeit mit AllMySat

Download on the App Store